{"data":{"norad_id":64579,"intl_designator":"2025-135BD","name":"GRUS-3ALPHA","alt_names":[],"object_type":"PAYLOAD","status":"ACTIVE","operator":null,"country":"JPN","launch_date":"2025-06-23","launch_site_code":"AFWTR","launch_vehicle":null,"mission":null,"orbit_class":"UNKNOWN","rcs_meters":null,"size_class":null,"mass_kg":null,"dimensions":null,"purposes":[],"wikipedia_slug":null,"has_3d_model":false,"image_url":null,"decayed_at":null,"tle_current":{"epoch":"2026-09-21T22:04:52.689792Z","epoch_age_seconds":55546,"freshness":"FRESH","line1":"1 64579U 25135BD  26264.92005428  .00000905  00000+0  91782-4 0  9991","line2":"2 64579  97.7846  18.1362 0003892  51.6100 308.5469 14.93330072 68315","mean_motion":14.93330072,"eccentricity":0.0003892,"inclination_deg":97.7846,"raan_deg":18.1362,"arg_perigee_deg":51.61,"mean_anomaly_deg":308.5469,"bstar":9.1782e-5,"rev_number":6831,"period_min":96.428782022144,"perigee_km":584.84983102941,"apogee_km":590.27193025971,"semimajor_km":6965.6978806446,"source":"CELESTRAK","updated_at":"2026-09-22T09:00:29.853144Z"}}}